timestamp,wind_dir_avg,wind_spd_avg,wind_spd_max_dir,wind_spd_gust,battery_voltage,lat,long
2019-11-21 00:04:01+00:00,75.0,11.47,82.0,13.85,12.57,47.59359,-54.27349
2019-11-21 00:14:01+00:00,73.0,15.2,77.0,17.25,12.57,47.59359,-54.27349
2019-11-21 00:24:01+00:00,69.0,14.06,73.0,16.31,12.57,47.59359,-54.27349
2019-11-21 00:34:01+00:00,70.0,13.37,70.0,15.73,12.57,47.59359,-54.27349
2019-11-21 00:44:01+00:00,65.0,14.19,65.0,16.39,12.57,47.59359,-54.27349
2019-11-21 00:54:01+00:00,73.0,13.61,76.0,16.46,12.57,47.59359,-54.27349
2019-11-21 01:04:01+00:00,73.0,14.72,70.0,17.08,12.57,47.59359,-54.27349
2019-11-21 01:14:01+00:00,75.0,15.9,76.0,18.76,12.57,47.59359,-54.27349
2019-11-21 01:24:01+00:00,72.0,14.53,65.0,18.82,12.57,47.59359,-54.27349
2019-11-21 01:34:01+00:00,72.0,15.53,73.0,17.99,12.57,47.59359,-54.27349
2019-11-21 01:44:01+00:00,69.0,14.97,69.0,16.68,12.57,47.59359,-54.27349
2019-11-21 01:54:01+00:00,79.0,14.02,80.0,15.72,12.57,47.59359,-54.27349
2019-11-21 02:04:01+00:00,75.0,16.09,74.0,18.82,12.57,47.59359,-54.27349
2019-11-21 02:14:01+00:00,81.0,15.73,83.0,17.76,12.57,47.59359,-54.27349
2019-11-21 02:24:01+00:00,73.0,12.87,73.0,15.14,12.57,47.59359,-54.27349
2019-11-21 02:34:01+00:00,74.0,13.91,76.0,16.89,12.57,47.59359,-54.27349
2019-11-21 02:44:01+00:00,76.0,14.34,74.0,16.4,12.57,47.59359,-54.27349
2019-11-21 02:54:01+00:00,77.0,13.38,76.0,15.34,12.57,47.59359,-54.27349
2019-11-21 03:04:01+00:00,76.0,14.23,76.0,16.68,12.57,47.59359,-54.27349
2019-11-21 03:14:01+00:00,77.0,13.31,77.0,15.48,12.57,47.59359,-54.27349
2019-11-21 03:24:01+00:00,85.0,12.95,79.0,15.66,12.57,47.59359,-54.27349
2019-11-21 03:34:01+00:00,78.0,11.86,80.0,14.69,12.57,47.59359,-54.27349
2019-11-21 03:44:01+00:00,79.0,12.33,76.0,15.16,12.57,47.59359,-54.27349
2019-11-21 03:54:01+00:00,74.0,15.14,61.0,17.8,12.57,47.59359,-54.27349
2019-11-21 04:04:01+00:00,72.0,15.71,73.0,18.97,12.57,47.59359,-54.27349
2019-11-21 04:14:01+00:00,79.0,14.45,79.0,16.37,12.57,47.59359,-54.27349
2019-11-21 04:24:01+00:00,75.0,12.65,83.0,14.83,12.57,47.59359,-54.27349
2019-11-21 04:34:01+00:00,70.0,15.25,76.0,17.67,12.57,47.59359,-54.27349
2019-11-21 04:44:01+00:00,78.0,15.01,74.0,16.88,12.57,47.59359,-54.27349
2019-11-21 04:54:01+00:00,77.0,13.56,77.0,16.11,12.57,47.59359,-54.27349
2019-11-21 05:04:01+00:00,73.0,15.25,76.0,18.04,12.57,47.59359,-54.27349
2019-11-21 05:14:01+00:00,76.0,15.94,74.0,19.35,12.57,47.59359,-54.27349
2019-11-21 05:24:01+00:00,73.0,16.02,73.0,19.74,12.57,47.59359,-54.27349
2019-11-21 05:34:01+00:00,71.0,16.27,63.0,18.41,12.57,47.59359,-54.27349
2019-11-21 05:44:01+00:00,75.0,14.82,75.0,17.2,12.57,47.59359,-54.27349
2019-11-21 05:54:01+00:00,77.0,14.66,79.0,19.01,12.57,47.59359,-54.27349
2019-11-21 06:04:01+00:00,74.0,14.89,76.0,16.82,12.57,47.59359,-54.27349
2019-11-21 06:14:01+00:00,74.0,15.09,72.0,18.06,12.49,47.59359,-54.27349
2019-11-21 06:24:01+00:00,75.0,12.85,73.0,15.66,12.49,47.59359,-54.27349
2019-11-21 06:34:01+00:00,80.0,13.67,90.0,17.11,12.49,47.59359,-54.27349
2019-11-21 06:44:01+00:00,77.0,12.68,76.0,14.81,12.49,47.59359,-54.27349
2019-11-21 06:54:01+00:00,79.0,15.25,79.0,17.47,12.49,47.59359,-54.27349
2019-11-21 07:04:01+00:00,77.0,13.53,72.0,17.18,12.49,47.59359,-54.27349
2019-11-21 07:14:01+00:00,74.0,14.54,72.0,17.18,12.49,47.59359,-54.27349
2019-11-21 07:24:01+00:00,73.0,14.7,76.0,17.97,12.49,47.59359,-54.27349
2019-11-21 07:34:01+00:00,73.0,14.2,68.0,15.93,12.49,47.59359,-54.27349
2019-11-21 07:44:01+00:00,73.0,14.81,79.0,17.2,12.49,47.59359,-54.27349
2019-11-21 07:54:01+00:00,72.0,14.62,70.0,17.38,12.49,47.59359,-54.27349
2019-11-21 08:04:01+00:00,78.0,11.21,85.0,13.97,12.49,47.59359,-54.27349
2019-11-21 08:14:01+00:00,79.0,13.14,76.0,15.28,12.49,47.59359,-54.27349
2019-11-21 08:24:01+00:00,81.0,17.35,81.0,19.71,12.49,47.59359,-54.27349
2019-11-21 08:34:01+00:00,80.0,15.87,77.0,18.07,12.49,47.59359,-54.27349
2019-11-21 08:44:01+00:00,76.0,15.11,81.0,17.82,12.49,47.59359,-54.27349
2019-11-21 08:54:01+00:00,76.0,13.64,76.0,15.44,12.49,47.59359,-54.27349
2019-11-21 09:04:01+00:00,77.0,16.57,80.0,19.11,12.49,47.59359,-54.27349
2019-11-21 09:14:01+00:00,73.0,16.88,78.0,19.72,12.49,47.59359,-54.27349
2019-11-21 09:24:01+00:00,70.0,17.08,76.0,20.14,12.49,47.59359,-54.27349
2019-11-21 09:34:01+00:00,71.0,16.93,72.0,18.69,12.49,47.59359,-54.27349
2019-11-21 09:44:01+00:00,74.0,15.18,73.0,18.54,12.49,47.59359,-54.27349
2019-11-21 09:54:01+00:00,72.0,15.26,75.0,19.09,12.49,47.59359,-54.27349
2019-11-21 10:04:01+00:00,74.0,14.29,75.0,17.61,12.49,47.59359,-54.27349
2019-11-21 10:14:01+00:00,74.0,18.45,75.0,19.91,12.49,47.59359,-54.27349
2019-11-21 10:24:01+00:00,72.0,15.19,74.0,18.53,12.49,47.59359,-54.27349
2019-11-21 10:34:01+00:00,72.0,15.24,67.0,18.03,12.49,47.59359,-54.27349
2019-11-21 10:44:01+00:00,73.0,13.75,75.0,16.54,12.49,47.59359,-54.27349
2019-11-21 10:54:01+00:00,70.0,14.49,63.0,18.01,12.49,47.59359,-54.27349
2019-11-21 11:04:01+00:00,72.0,17.31,71.0,19.61,12.49,47.59359,-54.27349
2019-11-21 11:14:01+00:00,71.0,15.29,68.0,17.92,12.49,47.59359,-54.27349
2019-11-21 11:24:01+00:00,73.0,14.21,76.0,16.44,12.49,47.59359,-54.27349
2019-11-21 11:34:01+00:00,68.0,14.48,75.0,16.59,12.49,47.59359,-54.27349
2019-11-21 11:44:01+00:00,69.0,15.54,68.0,17.8,12.49,47.59359,-54.27349
2019-11-21 11:54:01+00:00,70.0,13.73,74.0,15.8,12.49,47.59359,-54.27349
2019-11-21 12:04:01+00:00,66.0,12.98,66.0,15.82,12.49,47.59359,-54.27349
2019-11-21 12:14:01+00:00,66.0,12.53,67.0,14.42,12.49,47.59359,-54.27349
2019-11-21 12:24:01+00:00,62.0,13.07,63.0,14.65,12.49,47.59359,-54.27349
2019-11-21 12:34:01+00:00,63.0,12.31,57.0,14.35,12.49,47.59359,-54.27349
2019-11-21 12:44:01+00:00,68.0,14.51,69.0,17.33,12.49,47.59359,-54.27349
2019-11-21 12:54:01+00:00,69.0,18.64,59.0,20.62,12.49,47.59359,-54.27349
2019-11-21 13:04:01+00:00,72.0,18.06,69.0,21.37,12.49,47.59359,-54.27349
2019-11-21 13:14:01+00:00,70.0,19.42,72.0,22.78,12.49,47.59359,-54.27349
2019-11-21 13:24:01+00:00,72.0,17.5,70.0,19.89,12.49,47.59359,-54.27349
2019-11-21 13:34:01+00:00,74.0,18.38,70.0,20.09,12.49,47.59359,-54.27349
2019-11-21 13:44:01+00:00,69.0,16.95,72.0,19.69,12.49,47.59359,-54.27349
2019-11-21 13:54:01+00:00,70.0,16.43,71.0,19.17,12.49,47.59359,-54.27349
2019-11-21 14:04:01+00:00,76.0,15.73,83.0,19.07,12.49,47.59359,-54.27349
2019-11-21 14:14:01+00:00,74.0,16.31,70.0,20.09,12.97,47.59359,-54.27349
2019-11-21 14:24:01+00:00,72.0,16.57,72.0,19.16,12.97,47.59359,-54.27349
2019-11-21 14:34:01+00:00,71.0,15.55,80.0,17.8,12.97,47.59359,-54.27349
2019-11-21 14:44:01+00:00,71.0,17.48,69.0,19.62,12.97,47.59359,-54.27349
2019-11-21 14:54:01+00:00,70.0,17.19,72.0,19.18,12.97,47.59359,-54.27349
2019-11-21 15:04:01+00:00,67.0,16.59,69.0,18.59,12.97,47.59359,-54.27349
2019-11-21 15:14:01+00:00,73.0,16.99,74.0,19.64,13.05,47.59359,-54.27349
2019-11-21 15:24:01+00:00,70.0,15.5,67.0,19.12,13.05,47.59359,-54.27349
2019-11-21 15:34:01+00:00,71.0,18.08,73.0,21.56,13.05,47.59359,-54.27349
2019-11-21 15:44:01+00:00,69.0,17.28,65.0,19.31,13.05,47.59359,-54.27349
2019-11-21 15:54:01+00:00,70.0,16.74,71.0,20.29,13.05,47.59359,-54.27349
2019-11-21 16:04:01+00:00,67.0,17.7,64.0,20.22,13.05,47.59359,-54.27349
2019-11-21 16:14:01+00:00,70.0,18.71,64.0,21.08,13.13,47.59359,-54.27349
2019-11-21 16:24:01+00:00,71.0,16.82,63.0,19.95,13.13,47.59359,-54.27349
2019-11-21 16:34:01+00:00,71.0,18.71,69.0,22.35,13.13,47.59359,-54.27349
2019-11-21 16:44:01+00:00,67.0,17.76,66.0,21.52,13.13,47.59359,-54.27349
2019-11-21 16:54:01+00:00,73.0,16.42,76.0,18.86,13.13,47.59359,-54.27349
2019-11-21 17:04:01+00:00,68.0,15.58,71.0,19.72,13.13,47.59359,-54.27349
2019-11-21 17:14:01+00:00,68.0,16.15,71.0,18.64,13.05,47.59359,-54.27349
2019-11-21 17:24:01+00:00,67.0,17.88,71.0,20.38,13.05,47.59359,-54.27349
2019-11-21 17:34:01+00:00,71.0,15.39,70.0,19.22,13.05,47.59359,-54.27349
2019-11-21 17:44:01+00:00,69.0,18.87,71.0,22.01,13.05,47.59359,-54.27349
2019-11-21 17:54:01+00:00,74.0,18.27,73.0,20.37,13.05,47.59359,-54.27349
2019-11-21 18:04:01+00:00,73.0,16.42,77.0,18.97,13.05,47.59359,-54.27349
2019-11-21 18:14:01+00:00,68.0,17.83,69.0,20.69,12.89,47.59359,-54.27349
2019-11-21 18:24:01+00:00,71.0,17.73,58.0,21.67,12.89,47.59359,-54.27349
2019-11-21 18:34:01+00:00,67.0,19.19,68.0,21.62,12.89,47.59359,-54.27349
2019-11-21 18:44:01+00:00,63.0,18.22,55.0,22.49,12.89,47.59359,-54.27349
2019-11-21 18:54:01+00:00,61.0,16.83,61.0,20.29,12.89,47.59359,-54.27349
2019-11-21 19:04:01+00:00,62.0,16.52,65.0,20.16,12.89,47.59359,-54.27349
2019-11-21 19:14:01+00:00,60.0,20.35,58.0,23.5,12.73,47.59359,-54.27349
2019-11-21 19:24:01+00:00,58.0,18.56,52.0,21.36,12.73,47.59359,-54.27349
2019-11-21 19:34:01+00:00,63.0,19.77,68.0,22.45,12.73,47.59359,-54.27349
2019-11-21 19:44:01+00:00,59.0,18.62,58.0,22.54,12.73,47.59359,-54.27349
2019-11-21 19:54:01+00:00,57.0,18.14,53.0,21.93,12.73,47.59359,-54.27349
2019-11-21 20:04:01+00:00,63.0,17.24,59.0,20.53,12.73,47.59359,-54.27349
2019-11-21 20:14:01+00:00,68.0,17.53,70.0,22.48,12.57,47.59359,-54.27349
2019-11-21 20:24:01+00:00,69.0,19.16,69.0,23.15,12.57,47.59359,-54.27349
2019-11-21 20:34:01+00:00,65.0,18.46,70.0,22.62,12.57,47.59359,-54.27349
2019-11-21 20:44:01+00:00,69.0,18.03,75.0,22.73,12.57,47.59359,-54.27349
2019-11-21 20:54:01+00:00,68.0,19.85,66.0,23.68,12.57,47.59359,-54.27349
2019-11-21 21:04:01+00:00,65.0,17.42,73.0,20.74,12.57,47.59359,-54.27349
2019-11-21 21:14:01+00:00,71.0,19.9,71.0,23.28,12.57,47.59359,-54.27349
2019-11-21 21:24:01+00:00,66.0,18.91,65.0,21.68,12.57,47.59359,-54.27349
2019-11-21 21:34:01+00:00,62.0,19.46,63.0,23.76,12.57,47.59359,-54.27349
2019-11-21 21:44:01+00:00,60.0,19.72,62.0,23.44,12.57,47.59359,-54.27349
2019-11-21 21:54:01+00:00,62.0,19.62,63.0,23.18,12.57,47.59359,-54.27349
2019-11-21 22:04:01+00:00,60.0,18.94,62.0,24.95,12.57,47.59359,-54.27349
2019-11-21 22:14:01+00:00,66.0,19.0,69.0,22.3,12.49,47.59359,-54.27349
2019-11-21 22:24:01+00:00,60.0,20.78,62.0,24.46,12.49,47.59359,-54.27349
2019-11-21 22:34:01+00:00,58.0,21.51,62.0,23.83,12.49,47.59359,-54.27349
2019-11-21 22:44:01+00:00,61.0,20.9,60.0,24.58,12.49,47.59359,-54.27349
2019-11-21 22:54:01+00:00,63.0,19.17,68.0,21.97,12.49,47.59359,-54.27349
2019-11-21 23:04:01+00:00,57.0,21.18,52.0,24.5,12.49,47.59359,-54.27349
2019-11-21 23:14:01+00:00,57.0,20.03,54.0,22.73,12.41,47.59359,-54.27349
2019-11-21 23:24:01+00:00,57.0,20.46,59.0,24.98,12.41,47.59359,-54.27349
2019-11-21 23:34:01+00:00,57.0,20.79,52.0,23.39,12.41,47.59359,-54.27349
2019-11-21 23:44:01+00:00,54.0,20.29,52.0,24.06,12.41,47.59359,-54.27349
2019-11-21 23:54:01+00:00,57.0,20.1,57.0,23.32,12.41,47.59359,-54.27349
